Flag for Russia Weather past 2 weeks in Nizhny Novgorod, Russia

Now
57 °F

Passing clouds.


Feels Like: 57 °F
Forecast: 57 / 67 °F
Wind: 1 mph from North

Location: Nizhny Novgorod/Strigino

Current Time: Jul 7, 2015 at 11:33:29 PM

Latest Report: Jul 7, 2015 at 11:00 PM


Visibility: N/A

Pressure: 29.68 "Hg

Humidity: 94%

Dew point: 55 °F

Location of Nizhny NovgorodLocation

Historic Weather in Nizhny Novgorod — Graph

°F

Nizhny Novgorod temperature yesterday

Maximum temperature yesterday: 63 °F (at 12:00 PM)
Minimum temperature yesterday: 41 °F (at 11:30 PM)
Average temperature yesterday: 56 °F

Past Weeks' High & Low Weather Summary

 TemperatureHumidityPressure
High88 °F (Jun 27, 12:30 PM)100% (Jun 22, 10:00 PM)30.18 "Hg (Jun 22, 10:00 PM)
Low41 °F (Jul 6, 11:30 PM)34% (Jul 2, 3:30 PM)29.62 "Hg (Jun 27, 6:30 PM)
Average67 °F75%29.87 "Hg
* Reported Jun 22 10:00 PM — Jul 7 10:00 PM, Nizhny Novgorod, Weather by CustomWeather, © 2015

Note: Actual official high and low records may vary slightly from our data, if they occured in-between our weather recording intervals... More about our weather records

Advertising

Nizhny Novgorod weather history for previous 24 hours

 ConditionsComfort  
Time TempWeatherWind HumidityBarometerVisibility
10:00 PM
Tue, Jul 7
57 °FOvercast.3 mph94%29.68 "Hg6 mi
9:30 PM57 °FLight rain. Overcast.3 mph94%29.68 "Hg4 mi
9:00 PM57 °FLight rain. Overcast.6 mph94%29.71 "Hg5 mi
8:30 PM57 °FOvercast.6 mph88%29.71 "Hg5 mi
8:00 PM57 °FOvercast.10 mph88%29.71 "Hg6 mi
7:30 PM57 °FOvercast.6 mph88%29.74 "HgN/A
7:00 PM57 °FPartly sunny.6 mph88%29.74 "HgN/A
6:30 PM57 °FLight rain. Scattered clouds.6 mph88%29.74 "HgN/A
6:00 PM57 °FLight rain. Scattered clouds.6 mph88%29.77 "Hg6 mi
5:30 PM59 °FLight rain. Scattered clouds.3 mph82%29.80 "HgN/A
5:00 PM59 °FLight rain. Scattered clouds.1 mph77%29.80 "Hg6 mi
4:30 PM63 °FLight rain. Scattered clouds.3 mph59%29.80 "HgN/A
4:00 PM63 °FScattered clouds.3 mph56%29.83 "HgN/A
3:30 PM64 °FScattered clouds.3 mph49%29.83 "HgN/A
3:00 PM64 °FScattered clouds.1 mph49%29.83 "HgN/A
2:30 PM64 °FScattered clouds.6 mph46%29.86 "HgN/A
2:00 PM64 °FScattered clouds.3 mph46%29.86 "HgN/A
1:30 PM64 °FScattered clouds.6 mph40%29.86 "HgN/A
1:00 PM64 °FScattered clouds.6 mph43%29.86 "HgN/A
12:30 PM64 °FPassing clouds.6 mph43%29.86 "HgN/A
12:00 PM64 °FScattered clouds.6 mph40%29.89 "HgN/A
11:30 AM64 °FScattered clouds.6 mph37%29.89 "HgN/A
11:00 AM63 °FScattered clouds.6 mph39%29.89 "HgN/A
10:30 AM61 °FScattered clouds.8 mph42%29.89 "HgN/A
10:00 AM61 °FScattered clouds.8 mph42%29.92 "HgN/A
9:30 AM61 °FScattered clouds.6 mph45%29.92 "HgN/A
9:00 AM59 °FScattered clouds.6 mph48%29.92 "HgN/A
8:30 AM59 °FPassing clouds.6 mph48%29.92 "HgN/A
8:00 AM57 °FSunny.6 mph55%29.95 "Hg10 mi
7:30 AM55 °FPassing clouds.3 mph63%29.95 "HgN/A
7:00 AM54 °FSunny.3 mph72%29.95 "Hg10 mi
6:30 AM54 °FSunny.3 mph72%29.95 "Hg10 mi
5:30 AM50 °FSunny.1 mph82%29.95 "Hg10 mi
5:00 AM46 °FSunny.1 mph93%29.95 "Hg10 mi
4:30 AM43 °FFog.1 mph100%29.95 "Hg6 mi
4:00 AM41 °FFog.No wind93%29.95 "Hg6 mi
3:30 AM41 °FClear.1 mph93%29.92 "Hg6 mi
3:00 AM45 °FClear.3 mph87%29.95 "Hg10 mi
2:30 AM43 °FClear.3 mph93%29.95 "Hg10 mi
2:00 AM41 °FClear.No wind93%29.95 "Hg6 mi
1:30 AM43 °FClear.1 mph87%29.95 "Hg6 mi
1:00 AM46 °FClear.3 mph82%29.92 "Hg6 mi
12:30 AM46 °FFog.6 mph87%29.92 "Hg6 mi
12:00 AM41 °FClear.1 mph93%29.92 "Hg6 mi
11:30 PM
Mon, Jul 6
41 °FClear.1 mph100%29.92 "Hg10 mi
11:00 PM43 °FClear.No wind93%29.92 "Hg10 mi
Weather by CustomWeather, © 2015

See weather overviewHow to use our weather pages